Regional Weather Roundup
Issued by NWS

Home | Current Version | Previous Version | Graphics & Text | Print | Product List | Glossary On
Versions: 1 2 3 4 5 6 7 8 9 10 11 12 13 14 15 16 17 18 19 20 21 22 23 24 25 26 27 28 29 30 31 32 33 34 35 36 37 38 39 40 41 42 43 44 45 46 47 48 49 50
000
ASUS43 KOAX 141202
RWRNE

WEATHER ROUNDUP FOR NEBRASKA
NATIONAL WEATHER SERVICE OMAHA NE
700 AM CDT MON JUL 14 2014

NOTES: SATELLITE DATA IS BEING USED TO AUGMENT CLOUD COVER ABOVE
       12000 FEET.
       "FAIR" INDICATES FEW OR NO CLOUDS BELOW 12,000 FEET WITH NO
       SIGNIFICANT WEATHER AND/OR OBSTRUCTIONS TO VISIBILITY.

  * THESE STATIONS DO NOT REPORT WEATHER SUCH AS RAIN...SNOW OR FOG.

NEZ001>004-019>022-054>056-141300-
NEBRASKA PANHANDLE

CITY           SKY/WX    TMP DP  RH WIND       PRES   REMARKS
SCOTTSBLUFF    CLEAR     58  56  93 NW8       30.25R
6HR MIN TEMP:  57; 6HR MAX TEMP:  71;

ALLIANCE       CLEAR     56  54  93 N7        30.22R
6HR MIN TEMP:  55; 6HR MAX TEMP:  63;

CHADRON        CLEAR     53  51  93 CALM      30.24R
6HR MIN TEMP:  53; 6HR MAX TEMP:  63;

KIMBALL        PTCLDY    59  57  92 NW7       30.26R
SIDNEY         PTCLDY    61  55  81 N10       30.24R
6HR MIN TEMP:  58; 6HR MAX TEMP:  63;

$$

NEZ057>060-069>072-079>082-141300-
SOUTHWEST NEBRASKA

CITY           SKY/WX    TMP DP  RH WIND       PRES   REMARKS
NORTH PLATTE   PTCLDY    60  57  89 NE3       30.15R
6HR MIN TEMP:  59; 6HR MAX TEMP:  68;

IMPERIAL       CLEAR     61  59  93 NW8       30.15R
6HR MIN TEMP:  59; 6HR MAX TEMP:  64;

LEXINGTON      MOCLDY    62  60  94 CALM      30.12R
MCCOOK         CLEAR     60  58  92 W5        30.12R
6HR MIN TEMP:  59; 6HR MAX TEMP:  67;

OGALLALA       PTCLDY    60  56  88 NE10      30.17R
$$

NEZ005>010-023>029-035>040-094-141300-
NORTH CENTRAL NEBRASKA

CITY           SKY/WX    TMP DP  RH WIND       PRES   REMARKS
VALENTINE      CLEAR     59  48  67 N8        30.18R
6HR MIN TEMP:  58; 6HR MAX TEMP:  69;

AINSWORTH      PTCLDY    57  52  83 N7        30.16R
BROKEN BOW     MOCLDY    63  61  93 CALM      30.12R
6HR MIN TEMP:  62; 6HR MAX TEMP:  69; 6HR PCP:  0.25;

O`NEILL        MOCLDY    60  56  85 NW7       30.12R
ORD            MOCLDY    60  58  92 W5        30.09R
6HR MIN TEMP:  60; 6HR MAX TEMP:  69; 6HR PCP:  0.08;

THEDFORD       CLEAR     59  58  94 W6        30.17R
$$

NEZ041-046>049-061>064-073>077-083>087-141300-
SOUTH CENTRAL NEBRASKA

CITY           SKY/WX    TMP DP  RH WIND       PRES   REMARKS
GRAND ISLAND   LGT RAIN  66  63  90 N5        30.10R
6HR MIN TEMP:  65; 6HR MAX TEMP:  71; 6HR PCP:  0.66;

AURORA         TSTM      66  66 100 N3        30.09R
HASTINGS       MOCLDY    66  60  81 NE7       30.08R
6HR MIN TEMP:  65; 6HR MAX TEMP:  73;

HEBRON         PTCLDY    69  64  83 NE7       30.05R
HOLDREGE       CLEAR     60  58  91 CALM      30.09S
KEARNEY *      MOCLDY    63  59  88 N6        30.10R
YORK           LGT RAIN  64  64 100 NE5       30.07S
$$

NEZ011>018-030>034-042>045-141300-
NORTHEAST NEBRASKA

CITY           SKY/WX    TMP DP  RH WIND       PRES   REMARKS
NORFOLK        MOCLDY    61  57  87 W5        30.07R
6HR MIN TEMP:  59; 6HR MAX TEMP:  71; 6HR PCP:  0.14;

ALBION         CLOUDY    62  58  86 CALM      30.08S
BLAIR          CLOUDY    62  54  75 W6        30.04R
FREMONT        CLOUDY    64  59  83 W5        30.05S
TEKAMAH        CLOUDY    65  59  81 NW6       30.03R
6HR MIN TEMP:  64; 6HR MAX TEMP:  73; 6HR PCP:  0.01;

WAYNE          CLEAR     58  56  93 CALM      30.07R
$$

NEZ050>053-065>068-078-088>093-141300-
SOUTHEAST NEBRASKA

CITY           SKY/WX    TMP DP  RH WIND       PRES   REMARKS
LINCOLN        CLOUDY    67  62  84 W3        30.07R
6HR MIN TEMP:  67; 6HR MAX TEMP:  73; 6HR PCP:  0.07;

OMAHA EPPLEY   CLOUDY    66  55  67 W6        30.04R
6HR MIN TEMP:  64; 6HR MAX TEMP:  73; 6HR PCP: TRACE;

BEATRICE       LGT RAIN  62  60  93 NE10      30.06R
FALLS CITY     CLOUDY    69  64  84 N9        30.00R
6HR MIN TEMP:  67; 6HR MAX TEMP:  71;

NEBRASKA CITY  RAIN      65  65  99 NW5       30.05R
PLATTSMOUTH    CLOUDY    65  60  86 CALM      30.04R
$$

NEZ044-045-051>053-067-141300-
OMAHA AREA

CITY           SKY/WX    TMP DP  RH WIND       PRES   REMARKS
OMAHA EPPLEY   CLOUDY    66  55  67 W6        30.04R
6HR MIN TEMP:  64; 6HR MAX TEMP:  73; 6HR PCP: TRACE;

BLAIR          CLOUDY    62  54  75 W6        30.04R
FREMONT        CLOUDY    64  59  83 W5        30.05S
MILLARD        CLOUDY    62  59  91 NW5       30.05R
PLATTSMOUTH    CLOUDY    65  60  86 CALM      30.04R
WAHOO          CLOUDY    64  59  82 NW3       30.05S
$$


USA.gov is the U.S. government's official web portal to all federal, state and local government web resources and services.